Weather History for KMDD - May, 2013

Change the Weather History Date:

Wednesday, May 22, 2013

  Actual Average (KMAF) Record (KMAF)
Temperature  
Mean Temperature 78 °F 75 °F  
Max Temperature 96 °F 89 °F 107 °F (1953)
Min Temperature 61 °F 62 °F 48 °F (2001)
Cooling Degree Days 13 11  
Month to date cooling degree days 176  
Year to date cooling degree days 284  
Growing Degree Days 28 (Base 50)    
Moisture  
Dew Point 42 °F    
Average Humidity 30    
Maximum Humidity 53    
Minimum Humidity 13    
Precipitation  
Precipitation 0.00 in 0.07 in 0.98 in (1963)
Month to date precipitation 1.08  
Year to date precipitation 3.60  
Sea Level Pressure  
Sea Level Pressure 29.89 in    
Wind  
Wind Speed 11 mph (SSE)    
Max Wind Speed 21 mph    
Max Gust Speed 26 mph    
Visibility 10 miles    
Events      
T = Trace of Precipitation, MM = Missing Value Source: NWS Daily Summary

Daily Weather History Graph

Daily Weather History Graph

Search for Another Location

Airport or City:

Trip Planner

Search our weather history database for the weather conditions in past years. The results will help you decide how hot, cold, wet, or windy it might be!

Date:

Astronomy

May. 22, 2013 Rise Set
Actual Time 6:46 AM CDT 8:43 PM CDT
Civil Twilight 6:19 AM CDT 9:11 PM CDT
Nautical Twilight 5:46 AM CDT 9:44 PM CDT
Astronomical Twilight 5:11 AM CDT 10:19 PM CDT
Moon 6:15 PM CDT (5/22) 4:42 AM CDT (5/22)
Length of Visible Light 14h 51m
Length of Day
13h 57m
Waxing Gibbous, 91% of the Moon is Illuminated
May 22
Waxing Gibbous
May 24
Full
May 31
Last Quarter
Jun 8
New
Jun 16
First Quarter

Hourly Weather History & Observations

Time (CDT) Temp. Dew Point Humidity Pressure Visibility Wind Dir Wind Speed Gust Speed Precip Events Conditions
12:15 AM 70.9 °F 39.4 °F 32% 29.91 in 10.0 mi SE 8.1 mph - N/A   Clear
12:35 AM 70.2 °F 39.6 °F 33% 29.91 in 10.0 mi SE 8.1 mph - N/A   Clear
12:55 AM 69.6 °F 39.6 °F 33% 29.91 in 10.0 mi SE 8.1 mph - N/A   Clear
1:15 AM 69.1 °F 39.4 °F 34% 29.91 in 10.0 mi SE 8.1 mph - N/A   Clear
1:35 AM 68.9 °F 39.4 °F 34% 29.91 in 10.0 mi SSE 10.4 mph - N/A   Clear
1:55 AM 68.7 °F 39.4 °F 34% 29.91 in 10.0 mi SSE 8.1 mph - N/A   Clear
2:15 AM 67.5 °F 40.1 °F 37% 29.91 in 10.0 mi South 10.4 mph - N/A   Clear
2:35 AM 67.1 °F 40.6 °F 38% 29.91 in 10.0 mi SSE 9.2 mph - N/A   Clear
2:55 AM 66.2 °F 41.2 °F 40% 29.91 in 10.0 mi SSE 9.2 mph - N/A   Clear
3:15 AM 66.2 °F 41.5 °F 41% 29.91 in 10.0 mi SSE 8.1 mph - N/A   Clear
3:35 AM 66.4 °F 41.9 °F 41% 29.91 in 10.0 mi SSE 9.2 mph - N/A   Clear
3:55 AM 65.5 °F 42.3 °F 43% 29.91 in 10.0 mi SSE 8.1 mph - N/A   Clear
4:15 AM 64.9 °F 42.3 °F 44% 29.92 in 10.0 mi ESE 8.1 mph - N/A   Clear
4:35 AM 63.9 °F 42.6 °F 46% 29.91 in 10.0 mi ESE 6.9 mph - N/A   Clear
4:55 AM 63.0 °F 42.8 °F 48% 29.91 in 10.0 mi SE 5.8 mph - N/A   Clear
5:15 AM 62.4 °F 43.2 °F 49% 29.92 in 10.0 mi SE 6.9 mph - N/A   Clear
5:35 AM 62.6 °F 43.5 °F 50% 29.92 in 10.0 mi SSE 5.8 mph - N/A   Clear
5:55 AM 62.2 °F 43.7 °F 51% 29.93 in 10.0 mi South 6.9 mph - N/A   Clear
6:15 AM 61.9 °F 44.1 °F 52% 29.93 in 10.0 mi South 5.8 mph - N/A   Clear
6:35 AM 61.7 °F 44.2 °F 53% 29.93 in 10.0 mi South 8.1 mph - N/A   Clear
6:55 AM 61.7 °F 44.6 °F 53% 29.93 in 10.0 mi SSE 6.9 mph - N/A   Clear
7:15 AM 62.6 °F 44.8 °F 52% 29.93 in 10.0 mi SSE 6.9 mph - N/A   Clear
7:35 AM 64.4 °F 45.1 °F 50% 29.93 in 10.0 mi SSE 9.2 mph - N/A   Clear
7:55 AM 65.8 °F 45.5 °F 48% 29.94 in 10.0 mi SSE 11.5 mph - N/A   Clear
8:15 AM 67.5 °F 46.0 °F 46% 29.94 in 10.0 mi SSE 10.4 mph - N/A   Clear
8:35 AM 68.2 °F 45.7 °F 44% 29.94 in 10.0 mi SE 12.7 mph - N/A   Clear
8:55 AM 70.0 °F 45.0 °F 41% 29.95 in 10.0 mi SSE 12.7 mph 20.7 mph N/A   Clear
9:15 AM 71.2 °F 44.2 °F 38% 29.95 in 10.0 mi SSE 12.7 mph 21.9 mph N/A   Clear
9:35 AM 73.9 °F 43.2 °F 33% 29.96 in 10.0 mi South 12.7 mph - N/A   Clear
9:55 AM 75.9 °F 43.0 °F 31% 29.96 in 10.0 mi South 15.0 mph 19.6 mph N/A   Clear
10:15 AM 77.7 °F 43.3 °F 29% 29.97 in 10.0 mi South 17.3 mph 23.0 mph N/A   Clear
10:35 AM 78.4 °F 44.4 °F 30% 29.96 in 10.0 mi SSE 18.4 mph 25.3 mph N/A   Clear
10:55 AM 79.5 °F 46.8 °F 31% 29.95 in 10.0 mi SSE 19.6 mph 25.3 mph N/A   Clear
11:15 AM 81.1 °F 47.3 °F 30% 29.95 in 10.0 mi SSE 15.0 mph 25.3 mph N/A   Clear
11:35 AM 82.8 °F 48.4 °F 30% 29.95 in 10.0 mi South 16.1 mph 21.9 mph N/A   Clear
11:55 AM 84.4 °F 49.8 °F 30% 29.94 in 10.0 mi SSE 20.7 mph 26.5 mph N/A   Clear
12:15 PM 85.8 °F 51.6 °F 31% 29.93 in 10.0 mi South 15.0 mph 24.2 mph N/A   Clear
12:35 PM 87.4 °F 52.9 °F 31% 29.93 in 10.0 mi South 17.3 mph 26.5 mph N/A   Clear
12:55 PM 89.1 °F 50.5 °F 27% 29.93 in 10.0 mi South 18.4 mph 24.2 mph N/A   Clear
1:15 PM 88.9 °F 50.0 °F 26% 29.92 in 10.0 mi South 19.6 mph 25.3 mph N/A   Clear
1:35 PM 89.8 °F 47.3 °F 23% 29.91 in 10.0 mi South 15.0 mph 21.9 mph N/A   Clear
1:55 PM 90.9 °F 46.4 °F 22% 29.90 in 10.0 mi SSW 15.0 mph 23.0 mph N/A   Clear
2:15 PM 91.9 °F 46.4 °F 21% 29.89 in 10.0 mi South 12.7 mph 17.3 mph N/A   Clear
2:35 PM 92.8 °F 44.6 °F 19% 29.88 in 10.0 mi South 16.1 mph 25.3 mph N/A   Clear
2:55 PM 93.0 °F 44.6 °F 19% 29.87 in 10.0 mi South 17.3 mph 25.3 mph N/A   Clear
3:15 PM 93.2 °F 43.5 °F 18% 29.86 in 10.0 mi South 8.1 mph 23.0 mph N/A   Clear
3:35 PM 93.9 °F 43.7 °F 18% 29.85 in 10.0 mi SSE 15.0 mph 24.2 mph N/A   Clear
3:55 PM 95.0 °F 40.1 °F 15% 29.84 in 10.0 mi South 13.8 mph 23.0 mph N/A   Clear
4:15 PM 94.6 °F 37.6 °F 14% 29.83 in 10.0 mi SSW 11.5 mph 21.9 mph N/A   Clear
4:35 PM 95.9 °F 37.2 °F 13% 29.82 in 10.0 mi South 10.4 mph 17.3 mph N/A   Clear
4:55 PM 95.4 °F 37.8 °F 13% 29.82 in 10.0 mi South 17.3 mph 25.3 mph N/A   Clear
5:15 PM 95.4 °F 36.9 °F 13% 29.81 in 10.0 mi SSE 10.4 mph 18.4 mph N/A   Clear
5:35 PM 95.4 °F 36.5 °F 13% 29.80 in 10.0 mi South 12.7 mph - N/A   Clear
5:55 PM 95.4 °F 36.1 °F 13% 29.80 in 10.0 mi SSW 11.5 mph - N/A   Clear
6:15 PM 94.8 °F 36.1 °F 13% 29.80 in 10.0 mi South 13.8 mph 19.6 mph N/A   Clear
6:35 PM 95.0 °F 36.1 °F 13% 29.80 in 10.0 mi SSE 9.2 mph - N/A   Clear
6:55 PM 95.0 °F 36.0 °F 13% 29.79 in 10.0 mi SSE 13.8 mph - N/A   Clear
7:15 PM 94.1 °F 36.0 °F 13% 29.79 in 10.0 mi SSE 15.0 mph - N/A   Clear
7:35 PM 93.4 °F 36.7 °F 14% 29.79 in 10.0 mi South 13.8 mph 18.4 mph N/A   Clear
7:55 PM 91.9 °F 37.4 °F 15% 29.80 in 10.0 mi South 15.0 mph 18.4 mph N/A   Clear
8:15 PM 90.7 °F 37.2 °F 15% 29.81 in 10.0 mi South 12.7 mph - N/A   Clear
8:35 PM 89.8 °F 38.3 °F 16% 29.81 in 10.0 mi SSE 11.5 mph - N/A   Clear
8:55 PM 88.7 °F 38.3 °F 17% 29.82 in 10.0 mi SSE 11.5 mph - N/A   Clear
9:15 PM 88.0 °F 37.9 °F 17% 29.82 in 10.0 mi SSE 10.4 mph - N/A   Clear
9:35 PM 87.3 °F 38.1 °F 18% 29.83 in 10.0 mi South 11.5 mph 19.6 mph N/A   Clear
9:55 PM 86.4 °F 39.4 °F 19% 29.84 in 10.0 mi SSE 12.7 mph - N/A   Clear
10:15 PM 85.5 °F 40.8 °F 21% 29.84 in 10.0 mi SSE 11.5 mph 16.1 mph N/A   Clear
10:35 PM 84.7 °F 42.4 °F 23% 29.85 in 10.0 mi SSE 11.5 mph 18.4 mph N/A   Clear
10:55 PM 84.2 °F 44.1 °F 24% 29.86 in 10.0 mi SSE 12.7 mph 19.6 mph N/A   Clear
11:15 PM 83.7 °F 45.3 °F 26% 29.86 in 10.0 mi SSE 11.5 mph 17.3 mph N/A   Clear
11:35 PM 83.1 °F 46.0 °F 27% 29.86 in 10.0 mi SSE 11.5 mph 18.4 mph N/A   Clear
11:55 PM 82.4 °F 46.8 °F 29% 29.86 in 10.0 mi SSE 11.5 mph 18.4 mph N/A   Clear